sat.trackr.live / text

‹ back to catalog

STARLINK-37202

NORAD 68731 · 2026-082D

PAYLOAD ACTIVE UNKNOWN

§ Identity

Operator
Country
US
Launch date
2026-04-15
Launch site
AFWTR
Launch vehicle
Mass (kg)
RCS (m²)

Purposes: comms

External: N2YO · Heavens-Above · Gunter

§ Orbital elements

Epoch: 2026-05-25T04:00:03.998880Z

Period
92.50 min
Inclination
97.2848°
Eccentricity
0.0002170
Mean motion
15.56819273 rev/d
Perigee alt
395.4 km
Apogee alt
398.3 km
Semi-major
6,775.0 km
B*
-3.9959e-2
RAAN
8.8053°
Arg perigee
83.3687°
Mean anomaly
69.6863°
Rev number
583

§ Raw data

STARLINK-372021 68731U 26082D   26145.16671295 -.02490103  00000+0 -39959-1 0  99942 68731  97.2848   8.8053 0002170  83.3687  69.6863 15.56819273  5835

JSON: /api/v1/satellites/68731 · /tle

For live sub-satellite position, see the globe view (requires WebGL).

§ Visibility from observer

Set your observer location to see the next 7 days of passes ≥ 10°. The values pass through the URL so the page stays shareable.

No JS? Fill the form by hand. The geolocation button needs JavaScript.